OSIRIS

Last updated on Fri Nov 24 2017 00:15:03 GMT+0000 (Coordinated Universal Time)

1 43027U 98067NL 17327.43689381 .00022134 00000-0 32830-3 0 9999 2 43027 51.6406 324.4310 0004556 89.1789 270.9724 15.55137569 311

Satellite not in orbit